Flag for India Weather past 2 weeks in Nadiad, Gujarat, India

Now
84 °F

Passing clouds.


Feels Like: 84 °F
Forecast: 77 / 106 °F
Wind: 6 mph from East

Location: Ahmadabad Airport

Current Time: Mar 27, 2015 at 5:43:45 AM

Latest Report: Mar 27, 2015 at 3:40 AM


Visibility: 2 mi

Pressure: 29.83 "Hg

Humidity: 43%

Dew point: 59 °F

Location of NadiadLocation

Historic Weather in Nadiad — Graph

°F

Nadiad temperature yesterday

Maximum temperature yesterday: 109 °F (at 3:40 PM)
Minimum temperature yesterday: 77 °F (at 5:40 AM)
Average temperature yesterday: 93 °F

Past Weeks' High & Low Weather Summary

 TemperatureHumidityPressure
High111 °F (Mar 25, 4:40 PM)89% (Mar 14, 7:40 PM)30.07 "Hg (Mar 14, 7:40 PM)
Low64 °F (Mar 17, 5:40 AM)13% (Mar 23, 3:40 PM)29.71 "Hg (Mar 24, 4:40 PM)
Average85 °F38%29.89 "Hg
* Reported Mar 12 3:40 AM — Mar 27 3:40 AM, Nadiad, Weather by CustomWeather, © 2015

Note: Actual official high and low records may vary slightly from our data, if they occured in-between our weather recording intervals... More about our weather records

Advertising

Nadiad weather history for previous 24 hours

 ConditionsComfort  
Time TempWeatherWind HumidityBarometerVisibility
3:40 AM
Fri, Mar 27
84 °FPassing clouds.6 mph43%29.83 "Hg2 mi
2:40 AM84 °FPassing clouds.No wind45%29.83 "Hg2 mi
1:40 AM88 °FPassing clouds.No wind38%29.86 "Hg2 mi
11:40 PM
Thu, Mar 26
88 °FPassing clouds.No wind40%29.89 "Hg2 mi
10:40 PM90 °FPassing clouds.3 mph38%29.89 "Hg2 mi
9:40 PM91 °FPassing clouds.No wind36%29.86 "Hg2 mi
8:40 PM97 °FPassing clouds.No wind27%29.83 "Hg2 mi
7:40 PM97 °FPassing clouds.No wind27%29.83 "Hg2 mi
5:40 PM104 °FScattered clouds.6 mph19%29.77 "Hg4 mi
4:40 PM109 °FScattered clouds.5 mph18%29.77 "Hg4 mi
3:40 PM109 °FScattered clouds.6 mph19%29.77 "Hg3 mi
1:40 PM106 °FScattered clouds.7 mph19%29.83 "Hg2 mi
12:40 PM104 °FScattered clouds.6 mph20%29.86 "Hg2 mi
11:40 AM99 °FScattered clouds.No wind25%29.89 "Hg2 mi
9:40 AM91 °FScattered clouds.No wind28%29.92 "Hg1 mi
8:40 AM84 °FScattered clouds.No wind40%29.86 "Hg1 mi
7:40 AM81 °FScattered clouds.No wind45%29.86 "Hg1 mi
5:40 AM77 °FClear.No wind47%29.80 "Hg2 mi
Weather by CustomWeather, © 2015

See weather overviewHow to use our weather pages